• MPC Preparation (Info)

  • MPEC 2019-J90 : 2008 UA332

    The following Minor Planet Electronic Circular may be linked-to from your own Web pages, but must not otherwise be redistributed electronically.

    A form allowing access to any MPEC is at the bottom of this page.


    Read MPEC 2019-J89 Read MPEC 2019-J91


    M.P.E.C. 2019-J90                                Issued 2019 May 11, 01:21 UT
    
         The Minor Planet Electronic Circulars contain information on unusual
             minor planets and routine data on comets.  They are published
        on behalf of Division F of the International Astronomical Union by the
              Minor Planet Center, Smithsonian Astrophysical Observatory,
                              Cambridge, MA 02138, U.S.A.
    
                 Prepared using the Tamkin Foundation Computer Network
    
                                  MPC@CFA.HARVARD.EDU
                URL https://www.minorplanetcenter.net/    ISSN 1523-6714
    
                                      2008 UA332
    
    Additional Observations:
         K08UX2A 7C2014 09 15.33067103 03 02.04 -13 57 43.6          22.0 z EJ090W84
         K08UX2A 7C2014 10 28.34532403 00 29.38 -14 20 45.1          22.8 g EJ090W84
         K08UX2A 7C2014 10 29.34233803 00 24.91 -14 21 06.3          22.5 i EJ090W84
         K08UX2A 7C2014 10 31.25827503 00 16.27 -14 21 45.1          22.4 i EJ090W84
         K08UX2A 7C2014 10 31.25963003 00 16.27 -14 21 45.1          23.2 g EJ090W84
         K08UX2A 7C2014 10 31.26238403 00 16.25 -14 21 45.2          22.4 r EJ090W84
         K08UX2A 7C2014 11 28.25863402 58 09.52 -14 26 03.7          21.9 i EJ090W84
         K08UX2A 7C2014 12 23.11098402 56 36.56 -14 21 04.8          22.4 i EJ090W84
         K08UX2A 7C2015 01 26.05476902 55 39.18 -14 02 08.4          22.1 z EJ090W84
         K08UX2A 7C2015 11 22.22722203 03 37.42 -13 46 19.2          22.1 z EJ090W84
         K08UX2A 7C2015 12 15.21371503 02 03.20 -13 44 17.7          22.6 i EJ090W84
         K08UX2A 7C2015 12 15.21506903 02 03.20 -13 44 17.5          22.7 r EJ090W84
         K08UX2A 7C2015 12 15.21643503 02 03.19 -13 44 17.7          23.5 g EJ090W84
         K08UX2A 7C2016 01 16.12023103 00 43.34 -13 30 19.5          22.2 i EJ090W84
         K08UX2A 7C2016 09 25.28326403 12 21.60 -12 45 09.4          21.7 g EJ090W84
    
    Observer details:
    W84 Cerro Tololo-DECam.  Observers M. March, L. Clerkin, E. Luque,
        E. Buckley-Geer, J. Aleksi, K. Bechtol, D. Nagasawa, E. Neilsen, C. Smith,
        D. Mudd, S. Chandrasekharan, C. Sanchez, R. Das, F. Castander, R. Cawthon,
        A. Plazas, A. Kremin, D. James, B. Santiago, Y. Zhang, N. Kuropatkin,
        N. Sevilla, B. Nord, C. Wethers, S. Birrer.  Measurer D. Gerdes.  4.0-m
        f/2.87 reflector + CCD.
    
    Orbital elements:
    2008 UA332
    Epoch 2019 Apr. 27.0 TT = JDT 2458600.5                 MPC
    M  21.43416              (2000.0)            P               Q
    n   0.00150181     Peri.  226.26219     +0.81104228     +0.32840974
    a  75.5194949      Node   108.87121     -0.26895724     +0.94423392
    e   0.5124708      Incl.   30.77077     -0.51949247     +0.02386105
    P 656              H    5.8           G   0.15           U   1
    Residuals in seconds of arc
    081026 807  0.0   0.2-    141028 W84  0.1+  0.1-    150126 W84  0.2+  0.1+
    081026 807  0.0   0.0     141029 W84  0.1+  0.1-    151122 W84  0.2-  0.4-
    081027 807  0.4-  0.0     141031 W84  0.0   0.0     151215 W84  0.1-  0.1-
    081221 695  0.1+  0.0     141031 W84  0.1+  0.0     151215 W84  0.0   0.0
    081222 695  0.0   0.2+    141031 W84  0.0   0.0     151215 W84  0.1-  0.2-
    081222 695  0.1+  0.0     141128 W84  0.0   0.2+    160116 W84  0.1-  0.0
    140915 W84  0.2-  0.1+    141223 W84  0.1+  0.1+    160925 W84  0.1+  0.4+
    
    Ephemeris:
    2008 UA332               a,e,i = 75.52, 0.51, 31                 q = 36.818
    Date    TT    R. A. (2000) Decl.     Delta      r     Elong.  Phase     V
    2019 04 11    03 17 46.2 -10 33 59  46.8870 46.0756    35.6     0.7    22.6
    ...
    2019 04 26    03 19 04.0 -10 24 50  46.9693 46.0918    29.0     0.6    22.6
    ...
    2019 05 04    03 19 47.8 -10 20 41  46.9907 46.1004    27.7     0.6    22.6
    ...
    2019 05 10    03 20 21.3 -10 17 58  46.9962 46.1069    28.0     0.6    22.6
    2019 05 11    03 20 27.0 -10 17 33  46.9963 46.1080    28.1     0.6    22.6
    2019 05 12    03 20 32.6 -10 17 08  46.9961 46.1091    28.3     0.6    22.6
    ...
    2019 05 18    03 21 06.2 -10 14 53  46.9897 46.1155    29.9     0.6    22.6
    ...
    2019 05 26    03 21 50.8 -10 12 28  46.9677 46.1242    33.3     0.7    22.6
    ...
    2019 06 10    03 23 11.1 -10 09 48  46.8868 46.1404    42.3     0.8    22.6
    
    A. U. Tomatic                (C) Copyright 2019 MPC           M.P.E.C. 2019-J90
    

    Read MPEC 2019-J89 Read MPEC 2019-J91


    MPEC number:

    Enter an MPEC number in one of the following forms:

    • 1997-B01 (the full form)
    • J97B01 (the packed version of the full form)
    • B01 (the abbreviated form)